GFSSGP_700_temp_000.txt.gz
Temp
16 16 15 16 16 16 15 14 13 13 12 11 11 12 12 11 11 10 10 10 10 10 10 10 10 10 10 10 10 10 9 9 9 9 9 9 9 9 9 9 9 9 9 8 8 8 8 8 8
16 16 16 16 17 17 15 15 14 13 11 11 11 11 11 12 12 11 10 10 10 10 10 10 10 10 10 10 9 9 9 9 9 9 9 9 9 9 9 9 9 9 9 8 8 8 8 8 8
16 16 15 17 17 17 15 14 13 12 12 12 13 12 12 12 11 11 11 10 10 10 10 10 9 9 9 9 9 9 9 9 9 9 9 9 9 9 9 9 9 8 8 8 8 8 8 8 8
17 17 16 17 16 15 14 13 12 12 12 12 12 13 12 11 11 11 11 10 10 10 10 10 9 9 9 9 9 9 9 9 9 9 9 9 9 9 9 9 9 9 8 8 8 8 8 8 8
17 17 18 17 16 15 14 14 14 13 12 12 12 13 13 11 11 11 11 10 10 10 10 10 9 9 9 9 9 9 9 9 9 9 9 9 9 9 9 9 9 9 8 8 8 8 8 8 9
16 17 18 18 16 15 14 13 14 13 14 14 14 14 13 12 11 11 11 10 10 10 10 10 10 9 9 9 9 9 9 9 9 9 9 9 9 9 9 9 9 9 8 8 8 8 8 8 8
16 18 18 17 16 15 14 14 14 13 12 12 14 14 13 12 12 11 11 10 10 10 10 10 10 10 10 9 9 9 9 9 9 9 9 9 9 9 8 9 8 8 8 8 8 8 8 9 8
16 18 18 18 17 16 14 14 14 13 14 14 14 14 14 13 13 12 11 11 10 10 10 10 10 9 9 9 9 9 9 9 9 9 9 9 8 8 8 8 8 8 8 8 8 8 9 9 8
17 18 18 18 18 16 14 14 15 14 14 14 14 14 14 14 13 13 12 12 11 11 10 10 10 10 10 10 9 9 9 9 9 9 9 8 8 8 8 8 8 8 8 8 8 8 8 9 9
17 19 18 17 17 16 15 15 13 13 14 15 15 14 14 14 13 13 12 12 12 11 11 10 10 10 10 10 9 9 9 9 9 9 9 9 9 8 8 8 8 8 8 8 8 8 8 8 9
17 18 16 16 16 15 15 14 14 14 13 14 14 14 14 13 13 12 12 11 11 11 11 10 10 10 10 10 9 9 9 9 9 9 9 9 8 8 8 8 8 8 8 8 8 9 9 9 9
17 16 16 16 15 15 15 14 15 14 14 14 14 13 13 13 13 12 12 12 11 11 11 11 11 10 10 10 9 9 9 9 9 9 9 9 8 9 9 8 9 9 9 8 8 8 8 8 9
16 15 15 15 15 15 15 15 15 13 13 13 14 13 13 13 13 12 12 12 12 11 11 11 11 10 10 10 10 9 9 9 9 9 8 8 8 8 9 8 8 8 8 8 8 8 8 8 8
16 15 15 15 15 15 14 14 14 12 12 12 13 12 12 12 12 12 12 11 11 11 11 11 11 11 10 10 10 9 9 9 9 9 9 9 8 8 8 8 8 8 8 8 8 8 8 8 8
15 15 15 15 14 15 15 14 14 13 12 12 12 12 11 11 12 11 11 11 11 11 11 11 11 11 10 10 10 10 9 9 9 9 9 9 8 8 8 8 8 8 8 8 8 8 8 8 8
16 16 16 15 14 15 15 14 15 15 13 11 11 11 11 11 12 11 11 11 11 11 11 11 11 11 11 10 10 10 10 10 9 9 9 9 9 8 8 8 8 8 8 8 8 8 8 8 8
17 18 18 16 15 15 16 14 15 15 12 11 11 11 11 11 11 11 11 11 11 11 11 11 11 11 10 10 10 10 10 10 9 9 9 9 9 8 8 8 8 8 8 8 8 8 8 8 8
18 18 18 17 16 15 16 15 15 15 12 12 11 10 11 11 12 12 12 12 11 11 11 11 10 10 10 10 9 9 9 9 9 9 8 8 8 8 8 8 8 8 8 8 8 8 8 8 8
18 18 18 17 16 16 16 14 14 15 13 12 12 14 11 11 12 12 12 12 11 11 11 11 11 10 10 9 9 9 9 9 8 8 8 8 8 8 8 8 8 8 8 8 8 8 8 8 8
17 18 18 17 16 16 15 15 13 13 13 13 12 14 13 13 13 12 12 11 11 11 11 10 10 10 10 10 9 9 9 9 9 8 8 8 9 9 9 9 8 9 9 8 8 8 8 8 7
17 18 18 17 15 16 15 15 13 13 13 14 13 12 13 13 12 12 12 11 11 11 10 10 10 9 9 9 9 9 9 9 9 9 9 9 9 9 9 9 9 9 9 8 7 7 7 7 7
18 17 17 17 15 17 15 19 15 14 13 15 14 14 13 13 12 12 12 11 11 10 10 10 10 10 10 9 10 9 9 9 9 8 8 8 8 9 9 9 9 9 8 8 7 7 7 7 7
17 17 16 16 16 17 15 17 18 15 14 13 14 13 14 13 13 12 11 12 11 10 10 10 10 9 10 10 9 9 9 9 9 9 8 8 8 8 8 8 8 8 8 7 6 6 6 6 6
17 16 15 16 17 18 18 17 18 17 15 14 13 13 14 13 13 13 12 12 11 10 10 10 9 9 9 9 9 9 9 8 8 9 9 9 9 8 8 8 8 7 6 7 7 6 6 6 6
16 17 18 18 18 19 16 17 17 17 16 15 14 13 14 14 13 13 13 12 11 11 10 10 9 9 9 9 10 9 8 8 8 8 8 8 8 8 7 7 7 7 6 5 6 6 5 5 5
17 17 19 18 19 19 15 17 17 16 16 16 15 13 12 14 13 13 13 12 11 11 10 10 9 9 9 9 10 9 8 8 8 8 7 7 7 7 6 6 5 5 5 5 4 5 5 5 5
17 17 18 18 17 18 18 17 16 16 16 16 16 15 12 13 13 13 13 12 11 11 10 10 9 9 9 9 9 9 9 8 8 7 7 7 7 6 6 5 5 5 5 5 5 5 4 4 4
17 17 17 17 18 17 18 17 18 16 15 15 15 15 12 13 13 13 12 12 11 11 10 10 9 9 9 9 8 8 8 8 8 7 7 6 6 6 5 5 5 5 5 5 4 4 4 4 3
16 17 17 18 17 19 19 19 17 16 15 15 15 15 14 14 13 13 12 12 11 10 10 9 9 9 9 8 8 8 8 8 7 6 6 6 6 5 5 5 5 4 4 4 4 3 3 3 3
17 17 17 17 17 17 16 17 16 16 15 15 14 15 14 14 13 13 12 12 11 10 10 9 9 9 9 8 8 8 7 7 6 6 5 5 5 5 5 5 4 4 3 3 3 3 3 3 3

GFSSGP_700_temp_003.txt.gz
Temp
16 16 16 17 18 17 17 16 16 15 14 14 13 13 12 11 14 10 10 10 10 10 9 10 10 10 10 10 10 10 10 10 10 9 9 9 9 9 9 9 9 8 8 8 9 8 8 8 8
16 16 17 17 18 18 17 16 15 14 13 13 13 13 11 11 13 11 11 10 10 10 10 10 10 10 9 10 10 10 10 9 9 9 9 9 9 9 9 9 9 8 8 8 8 8 8 8 8
17 16 17 19 18 18 17 15 14 14 14 13 13 12 11 10 10 11 11 11 11 11 10 10 10 10 9 9 9 9 9 9 9 9 9 9 9 9 9 9 9 8 8 8 8 8 8 8 8
17 16 17 18 18 17 16 15 15 14 14 13 12 11 10 9 9 9 11 11 10 10 10 10 10 10 9 9 9 9 9 9 9 9 9 9 9 9 9 9 8 9 8 8 8 8 8 8 8
17 16 19 18 17 17 16 16 16 15 14 14 12 10 10 9 9 10 11 11 10 10 10 10 10 9 9 9 9 9 9 9 9 9 9 9 9 8 8 8 8 8 8 8 8 8 8 8 8
14 18 19 18 17 17 16 16 16 15 14 13 11 10 10 11 9 10 9 10 9 10 10 10 10 9 9 9 9 9 9 9 9 9 9 9 9 9 8 8 8 8 8 8 8 8 8 8 8
16 18 20 19 18 17 17 17 16 15 13 13 12 14 11 9 8 8 8 9 10 10 10 10 10 10 9 9 9 9 9 9 9 9 9 9 8 8 8 8 8 8 8 8 8 8 8 9 8
18 20 20 18 19 17 17 16 16 15 14 12 13 14 13 12 9 9 9 9 9 11 10 10 10 10 9 9 9 9 9 9 9 9 9 8 8 8 8 8 8 8 8 8 8 9 9 8 8
18 19 20 19 19 18 17 16 15 14 13 13 12 14 14 14 11 8 8 11 11 11 11 11 10 10 10 10 9 9 9 9 9 9 8 8 8 8 8 9 9 9 9 8 8 9 9 9 9
18 20 20 19 19 18 17 17 16 15 13 13 12 13 14 14 14 10 8 9 11 9 10 10 10 10 10 9 9 9 9 9 9 9 9 9 9 9 9 9 8 8 9 8 8 9 9 9 9
19 20 18 18 18 18 17 17 16 16 15 13 15 14 14 14 13 10 8 9 9 10 7 7 10 10 10 8 10 9 10 9 9 9 9 9 8 8 7 9 9 8 8 8 9 9 9 10 9
19 18 18 17 17 18 17 16 15 14 14 13 14 14 14 14 14 12 9 11 12 12 9 10 11 11 10 10 10 9 8 9 8 9 9 9 9 9 9 9 9 9 9 9 8 9 9 9 9
18 18 17 17 17 17 16 15 13 12 15 14 14 14 14 12 12 12 12 12 13 13 12 12 12 11 11 11 11 9 9 9 8 9 9 9 9 9 9 9 9 8 9 9 9 8 9 9 9
18 17 17 17 17 16 16 15 13 11 13 14 14 13 11 10 11 12 12 12 12 12 12 12 11 11 11 10 10 10 10 10 9 8 10 10 9 9 9 9 8 9 9 9 8 8 8 8 8
18 17 17 17 17 17 16 15 13 12 11 11 10 10 10 9 9 12 12 12 12 11 11 11 11 11 10 10 10 10 10 10 11 10 9 10 9 9 9 8 8 8 8 8 8 8 8 8 8
18 18 18 17 17 17 15 14 13 12 12 12 11 11 10 9 9 9 9 10 11 11 11 11 11 11 11 10 10 10 10 10 10 10 10 10 9 9 8 8 8 8 8 8 8 8 8 8 8
18 19 19 18 17 16 16 15 13 14 13 12 12 11 11 10 9 9 8 10 9 11 11 11 11 11 11 10 10 10 10 10 10 9 9 9 9 9 8 8 8 8 8 8 8 8 8 8 8
19 20 20 19 18 17 15 14 14 14 14 13 12 12 11 11 10 9 9 8 8 9 11 11 10 11 10 10 10 9 9 9 9 8 8 9 8 8 8 8 8 8 8 8 8 8 8 8 8
20 20 20 19 18 18 18 16 15 14 14 14 13 12 12 12 11 9 9 9 8 8 11 11 11 10 10 10 10 9 9 9 9 9 8 8 8 8 8 8 8 8 8 8 8 8 8 8 8
19 20 20 19 19 18 18 17 16 15 15 14 14 13 12 12 11 10 12 11 9 11 11 11 11 10 10 10 9 9 9 9 9 9 9 9 9 9 9 9 9 9 9 9 8 8 8 7 7
18 19 20 20 18 18 17 17 16 15 15 14 14 13 13 12 12 11 12 12 10 11 11 11 10 10 10 10 10 10 10 9 9 7 8 9 9 9 9 9 9 9 9 9 9 8 8 8 7
19 19 19 19 19 19 18 20 17 16 15 15 14 14 13 13 12 11 10 12 10 11 11 10 10 10 10 10 10 10 9 9 9 9 9 8 9 9 9 9 9 9 9 8 8 7 7 7 7
19 19 19 19 19 19 18 19 16 15 15 15 15 14 14 13 12 12 11 10 10 11 11 10 10 10 10 10 10 10 10 9 9 10 9 9 9 9 9 9 9 9 8 8 7 7 7 6 7
18 18 18 18 19 19 19 17 20 17 16 16 15 15 14 13 12 12 11 10 10 12 11 10 10 10 10 10 10 10 10 10 9 9 9 9 9 9 9 8 8 8 8 8 7 6 7 6 6
18 18 19 19 20 20 20 20 20 19 18 17 17 15 15 14 13 12 11 10 11 12 12 11 10 10 10 9 10 10 10 10 9 9 9 8 8 8 8 8 8 8 8 7 7 6 6 6 6
18 19 20 19 21 21 19 19 19 18 18 17 17 16 15 14 13 12 11 10 12 12 12 11 10 10 10 9 10 10 10 10 9 9 8 8 7 7 7 7 7 7 7 7 6 6 6 6 6
18 18 19 20 20 20 20 19 18 17 17 16 16 16 15 14 13 12 11 10 10 12 12 11 11 10 10 10 9 9 10 9 9 8 8 7 7 7 7 6 6 6 6 6 5 5 5 5 5
18 18 19 19 19 20 20 20 19 17 17 17 16 15 15 15 13 12 11 10 10 12 12 11 11 10 10 10 9 9 9 9 8 8 7 6 6 6 5 5 6 6 5 6 5 5 5 5 5
18 18 19 19 19 21 21 21 19 17 17 17 16 15 15 15 13 12 11 10 11 12 12 11 11 10 10 10 10 9 9 8 8 7 6 6 6 6 5 5 6 5 5 5 5 5 4 4 4
18 18 18 18 19 19 19 19 18 17 17 16 16 15 14 14 12 11 11 10 10 12 12 12 11 10 10 10 9 9 9 8 7 6 6 6 6 5 5 5 5 5 5 4 5 4 4 4 3

GFSSGP_700_temp_009.txt.gz
Temp
16 15 15 15 14 15 14 13 14 12 11 12 11 11 12 11 12 11 9 9 10 10 9 10 10 9 9 9 9 9 9 9 9 9 9 9 9 9 9 9 9 9 9 8 8 8 8 8 8
15 16 16 14 15 15 15 15 14 13 12 11 11 13 13 12 12 11 10 9 10 10 10 10 9 10 10 10 9 9 9 9 9 9 9 9 9 9 9 9 9 9 9 9 9 8 8 8 8
16 16 16 15 16 16 15 15 14 12 11 11 10 11 12 12 11 12 11 11 10 10 10 10 10 10 10 10 9 9 9 9 9 9 9 9 9 9 9 9 9 9 9 9 9 9 9 9 9
17 17 16 17 17 16 16 15 15 14 12 11 12 12 11 11 12 11 11 11 11 10 10 10 10 10 10 10 10 9 9 9 9 9 9 9 9 9 9 9 9 9 9 9 9 9 9 9 9
15 16 16 17 17 16 16 15 14 13 12 12 13 11 12 11 12 11 11 11 11 11 10 10 10 10 10 10 10 10 10 9 9 9 9 9 9 9 9 9 9 9 9 9 9 9 9 9 9
16 15 15 17 17 17 16 15 15 14 12 11 13 13 12 11 11 11 11 11 11 11 11 11 10 10 10 10 10 10 10 10 10 9 9 9 9 9 9 9 9 9 9 9 9 9 9 9 9
13 15 14 17 17 17 16 16 16 14 13 12 13 14 11 11 12 12 11 11 11 11 11 10 10 10 11 10 10 10 10 10 10 9 9 9 10 10 10 10 9 9 9 9 9 9 9 9 9
15 14 15 16 16 16 16 16 16 15 13 13 12 11 11 10 11 11 11 11 11 11 11 11 11 10 10 10 10 10 10 10 9 9 9 10 10 10 10 10 9 9 9 10 10 10 9 9 9
15 16 15 14 15 16 16 15 14 15 14 12 12 13 10 10 10 10 11 11 11 11 11 11 11 11 10 10 10 10 9 9 9 9 9 9 10 10 9 10 10 9 9 10 10 9 10 9 9
15 17 17 16 15 16 15 15 14 14 13 13 13 12 10 9 10 10 11 12 12 11 11 11 11 11 11 11 10 10 10 9 9 9 9 9 10 10 10 10 9 9 9 10 10 9 10 10 9
17 17 17 17 16 16 15 15 15 14 14 14 15 13 10 10 9 10 12 12 11 11 11 11 11 12 11 11 11 10 10 10 10 9 9 9 10 10 10 10 10 9 10 10 10 10 9 9 9
18 19 18 16 16 15 16 16 16 15 13 14 14 14 12 9 10 10 9 11 9 12 11 12 12 11 12 10 10 11 10 10 9 10 9 10 9 9 9 10 10 10 10 9 10 9 9 9 9
19 19 18 16 15 16 16 15 15 13 13 13 14 14 13 11 10 10 10 11 11 11 8 11 10 11 11 12 12 12 12 11 12 10 10 10 10 10 9 9 9 9 9 9 8 9 9 9 9
19 19 18 17 17 16 17 14 14 13 12 12 13 13 13 12 11 10 11 12 12 11 12 12 12 12 11 12 11 11 10 10 10 11 10 10 10 10 10 9 9 9 9 8 9 9 9 9 9
19 19 18 18 16 16 16 13 12 12 12 12 12 12 11 11 11 11 12 13 12 11 13 12 12 12 11 11 10 10 10 10 9 10 10 10 9 9 10 9 9 8 8 8 8 8 8 8 8
19 19 18 17 17 15 16 13 12 12 12 11 11 11 10 10 10 11 11 13 13 13 12 13 12 11 11 11 10 10 10 9 10 10 10 10 10 10 9 9 9 8 8 8 8 8 8 8 8
19 19 18 17 17 17 17 13 13 12 12 12 11 11 11 10 10 10 11 12 13 13 13 12 12 11 11 11 10 10 10 10 9 9 10 9 10 9 9 9 8 8 8 8 8 8 8 8 8
19 19 18 18 17 17 17 15 13 13 13 13 12 12 11 11 11 11 11 11 12 13 12 12 11 12 11 10 10 10 10 9 9 9 9 9 9 8 9 9 8 8 8 8 8 9 9 9 9
19 19 19 17 18 18 16 15 14 14 14 13 13 13 12 11 11 11 11 12 11 12 12 11 12 12 11 11 11 11 10 10 10 9 9 9 9 9 9 9 8 9 9 9 9 9 9 9 8
20 19 19 19 17 18 17 16 15 15 14 15 13 13 12 12 12 12 12 13 13 13 13 12 12 12 11 10 10 10 10 10 10 10 10 10 10 10 10 10 9 9 9 9 9 9 9 8 8
20 20 19 19 18 18 17 16 15 16 15 15 15 13 13 12 13 13 14 14 15 14 13 12 12 11 10 10 10 10 11 11 11 11 11 11 11 10 10 11 10 10 9 9 9 9 8 8 7
20 20 20 20 18 17 17 15 15 16 16 15 15 14 14 12 12 12 13 13 14 13 12 12 11 11 11 10 10 10 11 11 11 11 11 10 10 11 10 10 10 10 9 9 9 8 8 7 8
20 20 20 20 20 20 18 19 19 16 16 16 15 15 14 13 13 13 13 13 13 12 12 12 11 11 11 11 10 10 10 11 11 11 11 10 10 9 9 9 9 9 9 8 8 8 7 7 7
20 20 20 20 20 18 20 19 16 16 16 16 16 15 15 14 14 13 13 12 12 12 12 12 12 11 11 11 10 10 11 11 11 11 11 11 11 11 10 10 10 9 8 8 7 7 6 6 6
19 19 19 17 16 15 20 20 19 18 17 17 16 16 15 15 15 14 14 13 12 12 12 12 12 11 11 11 11 11 10 11 11 10 10 10 10 10 10 10 8 8 7 7 7 7 6 6 6
19 19 19 15 14 18 20 19 20 19 18 18 17 17 16 15 15 14 14 13 13 12 13 12 12 12 11 11 11 10 10 10 11 10 10 10 10 10 10 9 8 8 7 7 7 6 6 6 5
19 19 19 19 20 18 20 20 20 19 19 17 17 17 16 15 14 13 14 13 13 13 13 12 12 12 12 11 11 10 10 10 11 10 9 10 10 10 9 9 8 7 7 6 6 6 6 5 5
19 20 19 19 16 15 20 19 19 19 18 18 17 17 16 15 14 13 14 13 13 13 13 13 12 11 11 12 11 11 10 10 10 10 10 9 9 9 9 8 8 7 6 6 6 6 6 5 5
19 19 19 19 19 15 15 17 19 19 18 18 18 17 17 16 15 15 14 13 13 13 12 13 12 11 11 11 12 11 10 10 10 10 9 9 9 9 9 8 7 7 6 6 6 5 5 5 4
19 19 19 19 19 19 19 19 19 19 18 17 17 17 17 16 16 15 15 14 14 14 12 12 12 12 11 11 12 11 10 9 9 9 9 9 9 8 7 7 6 6 6 6 5 5 5 4 4

GFSSGP_700_temp_015.txt.gz
Temp
13 13 12 11 12 12 11 12 12 11 10 10 10 11 11 11 11 10 9 9 9 9 9 10 9 9 9 9 9 9 9 9 9 9 8 8 8 8 8 8 8 8 8 8 8 8 8 8 8
14 13 13 13 13 11 12 13 13 11 12 11 11 11 11 11 11 11 10 9 9 9 10 10 10 10 9 9 9 9 9 9 9 8 8 8 8 8 8 8 8 8 8 8 8 8 8 8 8
14 14 14 14 13 13 12 12 12 12 11 11 11 11 11 11 11 11 10 10 9 10 10 10 9 9 9 9 9 9 9 9 9 8 8 8 8 8 8 8 8 8 8 8 8 8 8 8 9
15 15 14 14 14 13 14 12 12 12 11 12 12 11 11 11 11 11 10 10 10 10 9 9 9 9 9 9 9 9 9 9 9 9 9 8 9 8 8 8 8 8 8 8 8 9 9 9 9
16 15 15 14 13 13 13 13 13 12 12 12 12 11 12 10 11 11 11 10 10 10 9 9 9 9 9 9 9 9 9 9 9 9 8 9 9 9 9 8 8 8 8 9 9 9 9 9 9
16 15 13 13 13 13 13 13 14 13 12 12 12 12 11 10 10 10 10 10 10 10 10 10 9 9 10 9 9 9 9 9 9 9 9 9 9 9 8 8 8 8 8 8 9 9 9 9 9
15 15 14 13 12 12 13 13 14 14 12 12 12 13 12 10 10 10 10 10 10 10 10 10 10 10 10 10 9 10 9 9 9 9 9 9 9 9 9 8 8 8 9 9 9 9 9 9 9
16 15 14 13 13 13 13 13 13 13 13 12 12 13 13 11 10 10 10 10 10 10 10 10 10 10 10 10 10 9 9 9 9 9 9 9 9 9 8 8 9 9 8 9 8 9 9 9 9
16 16 14 14 14 14 13 14 13 13 15 12 12 13 13 12 11 11 11 10 10 10 10 10 10 10 10 10 9 9 9 9 9 9 9 9 9 9 8 8 9 9 9 9 9 9 9 9 9
16 16 15 14 14 15 14 14 15 14 15 14 14 12 13 12 12 12 11 11 11 11 11 10 10 10 10 10 10 10 10 10 9 9 9 9 9 9 9 9 9 9 9 9 8 8 8 8 9
16 16 15 15 15 15 15 14 15 15 15 14 15 14 13 13 12 12 11 11 11 10 10 10 10 10 10 10 10 10 10 10 9 9 9 9 9 9 9 9 9 9 9 9 8 8 8 8 8
16 16 15 15 15 15 15 14 15 14 14 14 14 14 13 13 12 12 12 12 12 11 11 10 10 10 10 10 10 10 10 9 9 9 9 9 9 9 9 9 9 9 9 8 9 8 8 8 8
16 16 15 15 15 15 14 14 14 14 14 13 14 14 14 14 13 12 12 11 11 11 11 11 10 10 10 10 10 9 9 9 9 9 9 9 9 10 9 9 9 9 9 8 8 8 8 8 8
17 16 15 15 14 14 14 13 13 13 13 14 14 14 14 14 14 13 13 12 11 12 11 11 10 10 10 10 10 10 10 10 10 9 10 9 10 10 10 9 9 9 9 9 9 9 8 8 8
16 15 15 14 14 14 14 14 13 13 13 13 13 13 14 14 14 13 12 12 11 11 12 12 11 10 10 10 10 10 10 10 9 9 9 10 10 10 10 9 9 9 8 8 8 8 8 8 8
15 14 14 14 15 15 15 15 13 13 13 13 13 13 14 14 14 13 13 12 11 12 12 12 12 12 11 11 10 10 10 10 10 9 9 9 9 9 9 9 8 8 8 8 8 8 8 8 8
15 13 14 14 15 16 15 15 14 12 12 12 13 13 13 13 12 13 13 12 12 12 12 12 12 11 11 11 11 10 10 10 10 9 9 9 9 9 9 8 8 8 8 8 8 8 8 8 9
14 14 14 17 16 15 15 16 16 14 12 13 12 12 12 12 12 12 12 11 11 11 11 11 12 11 11 11 10 10 10 9 9 9 9 9 9 8 8 8 7 8 9 9 9 9 9 9 9
15 14 15 17 16 16 15 16 17 16 15 14 13 13 12 12 12 12 11 10 10 10 12 12 11 11 11 10 10 10 10 10 10 10 10 10 9 8 9 9 9 8 9 9 9 9 9 9 9
16 16 15 15 16 15 16 16 16 16 16 16 15 15 14 13 13 12 11 9 10 11 12 12 11 11 11 10 10 11 11 11 11 11 10 10 9 9 9 10 9 9 9 9 9 9 9 9 9
16 16 16 16 15 15 15 15 15 15 15 15 14 14 14 15 15 14 13 13 11 13 13 13 12 12 11 10 10 10 11 11 11 11 11 11 11 11 10 10 10 10 10 10 9 9 8 8 9
16 17 17 16 15 14 15 14 15 15 15 15 15 15 14 14 14 14 14 14 14 13 14 13 13 13 12 11 11 11 11 11 11 11 11 11 11 11 10 10 10 10 10 9 9 9 8 8 8
18 18 17 17 16 15 14 15 17 16 15 16 16 16 15 14 14 15 15 14 14 14 14 14 13 13 12 11 11 11 11 11 10 10 11 11 11 10 10 10 9 9 9 9 9 9 8 8 8
18 17 17 17 16 13 17 15 16 17 18 18 17 16 16 15 14 14 14 14 14 13 13 14 13 13 13 12 12 11 11 11 11 10 10 10 11 11 10 10 10 9 9 8 8 8 8 8 8
17 16 16 13 12 11 16 14 17 18 18 19 19 19 18 16 15 15 14 14 14 14 14 13 13 13 13 12 12 12 12 11 11 11 10 10 10 10 10 10 10 9 9 8 8 8 7 7 7
17 16 15 12 9 13 16 14 17 18 18 18 19 18 17 17 16 16 15 15 14 14 14 13 13 13 13 12 12 11 11 11 11 10 10 10 10 10 10 10 10 9 9 8 8 7 7 6 6
16 16 17 17 15 14 16 17 18 18 19 19 18 18 17 17 17 17 16 15 15 14 14 14 13 13 12 12 12 11 11 11 10 10 10 10 10 10 10 10 10 9 8 8 7 6 6 6 6
16 17 17 16 12 13 15 18 19 19 20 19 18 18 18 17 17 17 16 15 15 15 14 14 13 13 12 12 12 11 11 10 10 10 9 9 10 10 10 10 10 9 9 8 7 6 6 6 6
16 17 17 17 17 10 11 16 19 19 19 19 20 19 18 18 17 17 16 16 15 15 14 14 13 13 13 12 11 11 10 10 9 9 9 9 9 9 9 10 10 9 8 7 6 6 5 5 5
17 17 17 17 16 17 17 17 19 19 19 19 19 19 18 17 17 16 16 15 15 15 15 14 14 13 13 12 11 11 10 10 9 9 9 9 9 9 9 9 9 8 7 6 5 5 5 5 5

GFSSGP_700_temp_021.txt.gz
Temp
13 13 12 12 12 11 10 10 10 10 10 10 10 10 10 11 10 9 9 9 9 9 9 9 9 9 9 9 9 9 9 8 8 8 8 8 8 8 8 8 8 8 8 9 8 8 8 9 9
13 13 13 13 12 12 10 10 10 10 10 10 10 10 11 11 11 10 10 9 9 9 9 9 9 9 9 9 8 8 8 8 8 8 9 8 8 8 8 8 8 8 8 8 8 8 9 9 9
14 13 13 13 12 12 11 11 10 10 10 10 10 10 11 11 10 10 10 9 9 9 9 9 9 9 9 9 9 9 9 9 9 9 9 8 8 8 8 8 8 8 8 8 8 8 9 9 9
14 14 14 13 12 12 12 11 11 11 10 11 11 11 11 10 11 10 10 10 9 9 9 9 9 9 9 9 9 9 9 9 9 9 8 8 8 8 8 8 8 8 8 8 8 8 9 9 8
15 15 14 13 12 12 12 11 11 11 11 11 11 11 11 10 10 10 10 10 10 10 9 9 9 9 9 9 9 9 9 9 9 8 8 8 8 8 8 8 8 8 8 8 8 9 9 9 9
15 15 14 13 12 12 11 11 11 11 11 11 11 12 11 11 11 11 10 10 10 10 10 9 9 9 9 9 9 9 9 9 9 8 8 8 8 8 8 8 8 8 8 8 8 8 9 9 8
15 15 15 14 13 12 12 12 12 12 12 12 11 12 12 11 10 10 10 10 10 10 10 9 9 9 9 9 9 9 9 9 8 8 8 8 8 8 8 8 8 8 8 9 8 8 9 9 9
14 14 15 14 14 14 13 12 12 12 12 12 11 12 12 12 11 11 10 10 10 10 10 10 9 9 9 9 9 9 9 9 9 8 8 8 8 8 8 8 8 8 8 8 8 8 9 9 9
14 15 15 15 14 14 14 14 13 13 12 12 11 11 12 12 11 11 11 10 10 10 10 10 9 9 9 9 9 9 9 9 9 9 8 8 8 8 8 8 8 8 9 9 9 9 9 9 9
15 15 15 15 15 15 14 14 14 14 13 12 12 12 12 12 12 11 11 11 11 10 10 10 9 9 9 9 9 9 9 9 9 8 8 8 9 9 9 9 9 8 8 9 9 8 8 8 9
15 15 15 15 15 14 14 14 14 14 13 13 13 13 13 13 12 12 11 11 10 10 10 10 10 10 9 9 9 9 9 9 9 9 8 9 9 9 9 9 9 9 9 9 9 9 9 8 9
15 16 16 15 15 14 14 14 14 13 13 13 13 12 13 13 13 12 11 11 11 10 10 10 10 10 10 9 9 9 9 9 9 9 9 9 9 9 9 9 9 9 9 9 9 8 8 8 8
15 15 16 15 15 14 14 14 14 13 13 14 14 13 12 13 12 12 12 12 12 11 11 10 10 10 10 9 9 9 9 9 9 9 9 9 9 9 9 9 9 9 9 9 9 8 8 8 8
15 16 16 16 15 15 14 14 13 13 13 14 14 14 13 12 13 13 13 12 12 12 11 11 11 10 10 10 9 9 9 9 9 9 9 9 9 9 9 9 9 9 9 9 9 9 9 8 8
16 16 16 16 16 15 14 13 13 13 13 13 14 14 13 13 13 13 12 12 12 11 11 11 11 11 11 10 10 10 10 10 9 9 9 9 9 9 9 9 8 9 9 9 9 9 9 9 9
16 16 16 16 16 15 14 14 13 13 13 13 13 14 14 14 13 13 13 13 12 12 12 11 11 11 11 10 10 9 10 10 9 9 9 9 9 9 9 9 9 8 9 9 9 9 9 9 9
16 15 16 16 15 14 14 13 14 13 13 13 13 14 14 13 13 13 13 13 13 12 12 12 11 11 10 10 10 10 10 10 10 10 9 9 9 9 9 9 9 9 9 9 9 10 10 10 10
15 15 16 16 16 14 13 14 14 14 13 13 13 13 13 13 13 13 13 13 12 12 12 12 12 11 11 11 10 10 10 10 10 9 9 9 9 9 9 9 9 9 9 9 10 10 10 10 10
17 16 16 16 15 15 14 13 14 13 14 13 13 13 13 13 13 12 12 12 12 12 12 12 12 11 11 11 10 10 11 11 11 10 10 9 9 9 9 9 9 10 10 10 10 10 10 10 10
16 16 16 15 14 14 14 14 14 14 15 15 14 13 13 13 13 12 12 12 13 12 12 12 12 12 11 11 11 11 11 11 11 11 11 11 11 9 9 10 10 10 10 10 10 9 9 9 9
16 16 15 16 14 14 14 14 14 15 14 15 15 15 14 13 13 13 13 13 13 12 12 12 12 12 11 11 11 11 11 11 11 11 11 11 11 11 11 11 10 10 10 10 10 9 9 9 9
15 16 16 15 14 15 13 15 15 16 15 15 16 16 16 15 14 14 14 14 14 13 13 12 12 12 12 12 12 11 11 11 11 11 11 11 11 11 11 11 11 11 10 10 10 10 9 9 8
15 16 16 15 15 14 13 13 16 15 16 17 17 16 16 16 15 15 15 14 14 13 14 13 13 13 13 13 12 12 11 11 11 10 10 10 10 10 11 11 11 11 10 10 10 10 9 9 8
15 16 15 14 14 13 14 14 16 16 18 18 17 17 16 16 16 15 15 14 14 14 14 14 14 14 13 13 12 12 12 11 11 11 10 10 10 10 10 10 11 10 10 10 10 9 9 9 8
14 15 14 14 13 16 15 13 15 17 18 18 18 17 17 17 16 15 15 15 14 15 14 14 14 14 13 13 13 12 12 11 11 11 11 11 10 10 10 10 10 10 10 10 9 9 9 8 8
14 15 16 15 15 16 15 14 15 18 18 18 18 18 17 17 17 16 15 15 15 15 14 14 14 14 13 13 13 12 12 12 11 11 11 10 10 10 10 10 10 10 10 10 9 9 8 8 7
13 14 16 15 13 16 16 15 17 18 18 18 19 18 18 18 18 17 16 15 15 14 14 15 14 14 13 13 13 12 12 12 11 11 11 10 10 10 9 9 9 9 10 10 10 9 8 7 6
14 14 14 15 16 15 15 14 17 18 18 19 19 19 19 19 18 18 17 16 15 15 14 14 14 14 13 13 13 12 12 12 11 10 10 9 9 9 9 9 9 9 9 10 10 9 8 8 6
13 14 14 15 15 17 17 17 17 18 18 18 18 18 19 19 19 18 18 17 16 15 15 15 14 14 13 13 13 12 12 12 10 10 9 9 8 8 8 8 8 8 9 9 8 9 8 7 6
14 14 15 16 14 14 16 17 18 18 18 18 19 18 19 19 19 19 18 17 16 16 15 15 14 14 14 13 13 12 12 12 11 8 9 9 8 7 7 8 8 8 8 8 7 7 7 6 6

GFSSGP_700_temp_024.txt.gz
Temp
13 13 12 12 11 12 12 11 12 11 10 9 10 10 10 10 10 9 8 9 9 9 9 9 9 9 8 8 8 9 9 9 9 9 8 8 8 8 8 8 8 8 8 9 9 8 8 8 8
14 13 13 13 14 15 14 12 12 11 10 9 9 10 9 11 11 10 9 9 9 9 9 9 9 9 8 8 8 9 9 9 9 9 8 8 8 8 8 8 8 8 8 8 8 8 8 8 9
14 13 12 14 15 15 14 12 11 10 10 10 11 10 10 11 10 10 10 9 9 9 9 9 9 9 9 9 9 9 9 9 9 9 9 8 9 8 8 8 8 8 8 9 8 8 8 9 9
14 13 13 15 15 13 13 12 11 10 10 11 10 11 11 10 10 10 10 10 10 9 9 9 9 9 9 9 9 9 9 9 9 9 9 9 9 9 8 8 8 8 8 9 9 9 9 9 9
14 14 16 15 14 13 12 11 11 11 10 10 10 10 11 11 10 10 10 10 9 9 9 9 9 9 9 9 9 9 9 9 9 9 9 9 9 8 8 8 8 8 9 9 9 9 9 9 9
13 15 17 16 14 12 12 11 11 11 10 11 11 11 11 11 10 10 10 10 9 9 9 9 9 9 9 9 9 9 9 9 9 9 9 9 8 8 8 8 8 8 8 9 9 9 8 9 9
13 15 16 16 14 13 12 11 12 11 10 10 11 11 11 11 10 10 10 10 10 10 10 9 9 9 9 9 9 9 9 9 9 9 9 9 8 8 8 9 8 8 8 9 9 9 9 9 9
13 15 16 16 16 14 12 12 11 11 10 12 11 12 12 11 11 11 10 10 9 10 9 9 9 9 9 10 10 9 9 9 9 9 9 9 9 8 8 8 8 9 9 9 9 9 9 9 9
15 16 17 16 16 14 12 12 11 11 12 12 12 11 12 12 11 11 11 10 10 10 10 10 10 10 10 10 9 9 9 9 9 9 9 9 8 8 8 9 9 9 9 9 9 9 9 9 9
14 16 17 16 16 14 13 13 12 11 12 12 12 11 12 12 12 11 11 11 10 10 10 10 10 10 10 10 10 9 9 9 9 9 9 9 8 8 9 9 9 9 9 9 9 9 9 9 9
15 16 16 15 15 14 13 13 13 12 11 11 12 12 12 12 11 11 11 10 10 10 10 10 10 10 10 10 10 10 10 9 9 9 9 9 9 9 9 9 9 9 9 9 9 9 9 9 9
15 15 16 15 15 15 14 13 13 13 12 12 13 13 12 12 12 12 11 11 11 11 10 11 10 10 10 10 10 9 9 9 9 9 9 9 9 9 9 10 9 9 9 9 9 9 9 8 8
15 16 15 15 14 14 14 13 13 14 14 14 14 13 12 12 12 12 11 11 11 11 11 11 10 10 10 10 10 9 9 9 9 9 9 9 9 10 9 9 9 9 9 9 9 9 8 8 8
16 15 15 15 15 14 14 13 14 13 14 14 14 13 13 12 12 13 13 12 12 12 11 11 11 11 10 10 10 10 9 9 9 9 9 10 10 10 9 9 9 9 9 9 9 9 9 8 8
15 15 15 15 15 14 14 13 13 13 14 13 14 14 13 13 13 13 13 12 12 12 12 11 11 11 11 10 10 10 10 10 10 10 10 10 10 10 9 9 9 9 9 9 9 9 9 9 9
16 16 17 15 14 14 14 16 13 13 13 13 13 14 14 14 13 13 13 12 12 12 12 12 11 11 11 11 11 10 10 10 10 10 10 10 9 10 10 9 9 9 9 9 9 9 9 10 10
16 18 18 15 14 15 14 16 14 13 13 13 13 14 14 14 13 13 13 13 13 12 12 12 12 12 11 11 10 10 10 10 10 10 10 10 10 9 9 9 9 9 9 9 9 10 10 10 10
18 17 18 17 15 14 14 15 13 12 12 12 13 13 14 14 14 13 13 13 13 13 13 12 12 12 12 11 11 11 10 10 10 10 10 10 9 10 10 9 9 9 9 9 9 10 10 11 10
18 18 18 18 16 15 15 15 15 13 12 13 12 12 13 14 14 13 13 12 13 13 13 13 12 12 12 11 11 11 10 10 10 10 10 10 10 10 10 10 9 9 9 10 10 10 10 10 10
18 18 18 18 15 15 16 15 15 14 13 12 12 12 12 13 12 13 13 13 13 13 13 13 13 12 12 11 11 11 11 11 11 11 11 10 11 10 10 10 10 10 10 10 10 10 9 10 9
17 18 18 18 16 15 16 16 16 15 14 13 13 12 12 12 12 13 13 13 13 13 13 13 13 12 11 11 11 11 11 11 11 11 11 11 11 10 9 9 10 10 10 10 9 9 9 9 9
17 17 18 18 17 17 16 19 18 17 15 14 15 14 13 13 13 11 13 13 13 13 13 13 13 13 12 12 12 12 11 11 11 11 11 11 11 11 11 11 11 11 11 10 10 10 9 9 8
17 18 17 18 17 17 17 17 18 18 17 16 16 16 15 13 14 14 15 15 14 14 14 14 14 13 13 13 12 12 12 11 11 11 11 11 11 11 11 11 11 11 11 11 10 10 10 9 8
16 16 16 17 17 18 18 17 18 18 17 17 16 15 16 16 16 16 15 15 15 15 14 14 14 14 14 13 13 12 12 11 11 11 11 11 11 11 11 11 10 10 10 10 10 10 10 9 9
15 16 17 18 18 19 19 18 18 19 18 18 18 16 15 15 16 16 16 15 15 15 15 15 14 14 14 13 13 12 12 12 12 11 11 11 10 10 10 10 10 10 10 10 10 10 9 9 8
16 16 18 17 19 19 18 18 18 17 17 18 18 17 16 17 17 16 16 16 16 15 15 15 14 14 14 13 13 12 12 12 12 11 11 10 10 10 10 10 10 9 10 10 10 10 9 9 9
16 16 17 18 18 19 19 18 17 17 17 17 18 18 18 18 18 18 17 16 15 15 15 15 15 14 14 13 13 13 12 12 12 11 11 10 10 10 9 9 9 9 9 9 9 10 9 8 8
16 16 17 18 19 18 19 19 19 18 18 18 18 18 18 18 19 18 17 17 16 15 15 15 15 14 14 13 13 13 12 12 12 11 11 11 10 10 10 9 9 9 9 9 9 9 9 8 8
15 16 16 17 18 20 19 19 18 18 18 18 19 19 19 18 19 19 18 17 17 15 15 15 15 15 14 14 13 13 13 13 12 12 11 11 10 10 10 9 8 8 8 8 8 8 8 8 7
16 15 16 17 17 18 18 19 19 18 18 18 18 19 19 18 18 18 18 18 17 16 15 15 15 15 14 14 14 13 13 13 12 12 11 11 10 9 9 8 7 7 7 8 8 8 7 7 6

GFSSGP_700_temp_027.txt.gz
Temp
13 13 13 11 11 13 14 13 13 11 11 11 11 11 10 10 10 10 9 9 9 9 9 9 9 9 8 9 9 8 9 8 8 8 8 9 8 8 8 8 8 8 8 8 9 9 9 9 9
13 13 12 11 14 12 14 13 12 12 11 12 11 10 10 9 11 10 9 9 9 9 8 9 9 9 9 9 9 9 9 8 8 9 9 8 8 9 8 8 8 8 9 9 9 9 9 9 9
14 14 11 13 14 16 15 13 13 13 12 12 11 11 10 9 8 9 10 9 9 9 9 9 9 9 9 9 9 9 9 9 9 9 9 9 9 9 9 9 9 9 9 9 9 9 9 9 9
14 13 13 16 17 16 15 14 14 13 13 12 11 10 10 9 9 10 10 10 9 9 9 9 9 9 9 9 9 9 9 9 9 9 9 9 8 9 9 9 9 9 9 9 9 9 9 9 9
11 12 17 17 16 16 15 14 14 13 13 13 11 10 9 10 8 8 10 9 9 10 10 10 9 9 9 9 9 9 9 9 9 9 9 9 9 9 8 8 9 9 9 9 9 9 9 9 9
13 15 19 18 16 16 15 15 15 14 13 12 11 10 9 8 8 8 10 9 9 10 10 10 10 10 9 9 9 9 9 9 9 9 9 9 9 8 8 9 9 9 9 9 9 9 9 9 9
13 16 19 18 16 16 15 15 15 14 13 12 11 10 9 9 8 8 8 10 8 7 9 10 10 10 10 9 9 9 9 9 9 9 9 9 9 9 9 9 9 9 9 9 9 9 9 9 9
15 17 18 19 18 16 15 15 14 14 14 12 12 10 9 9 8 8 9 9 9 10 10 10 10 10 10 10 9 9 9 9 9 9 9 9 9 9 9 9 9 10 10 9 9 9 9 9 9
15 15 17 19 18 16 15 15 14 14 12 12 12 11 10 9 9 8 8 9 9 10 10 10 10 10 10 10 10 10 10 9 9 9 9 9 9 9 9 9 9 9 9 9 9 9 9 9 9
15 15 18 18 18 16 15 15 14 13 12 12 12 11 11 11 9 9 9 8 8 10 10 10 10 10 10 10 10 10 10 9 10 10 9 9 9 9 9 9 9 9 9 9 9 9 9 9 8
17 15 18 18 18 17 15 15 14 14 13 12 12 10 12 12 10 9 9 8 8 11 11 7 7 11 11 8 10 10 10 10 10 9 9 9 9 10 10 9 9 9 9 8 9 8 9 9 8
17 17 18 17 17 17 16 15 15 14 14 13 12 11 12 12 10 9 9 8 8 11 8 7 11 11 11 11 10 7 7 8 8 9 9 9 9 9 9 8 8 9 9 9 8 9 8 9 8
17 17 17 17 17 17 16 15 15 14 14 13 12 12 12 10 9 9 9 9 11 11 11 11 11 11 11 11 11 9 7 9 7 8 10 9 9 9 9 9 9 9 9 8 9 8 9 9 8
18 18 18 17 17 17 16 16 15 14 14 13 12 13 12 11 10 9 9 10 12 12 12 12 12 12 11 11 10 10 10 7 9 7 9 10 10 8 9 9 9 8 9 8 8 9 9 8 8
18 17 17 17 17 17 16 16 15 14 14 13 12 11 11 11 10 10 10 12 12 12 12 12 12 12 11 11 11 11 10 10 9 9 10 10 10 9 9 9 9 9 9 9 9 9 8 8 7
17 18 18 18 17 17 16 17 15 14 14 13 12 12 11 11 11 10 12 12 12 12 12 12 12 12 12 11 11 11 11 9 9 9 9 9 9 10 9 9 9 9 8 8 8 8 9 8 9
18 19 19 18 17 17 16 13 16 14 14 14 13 12 12 11 11 11 12 13 13 13 13 13 12 12 12 12 11 11 11 10 9 8 9 8 10 9 9 9 9 9 9 9 9 8 8 9 10
19 19 20 19 18 17 17 17 16 15 14 14 13 13 12 11 12 11 13 13 13 13 13 13 13 12 12 12 11 11 11 10 10 10 9 10 9 10 10 9 9 9 9 8 9 10 10 10 10
19 20 19 20 18 17 17 18 17 16 15 15 14 13 13 12 12 11 13 13 13 13 14 13 13 13 13 13 11 12 11 11 10 10 9 10 10 10 10 10 10 10 9 9 9 10 10 10 10
19 20 20 20 19 18 18 18 18 17 15 15 15 14 13 13 12 11 10 11 13 13 14 14 13 13 13 13 12 10 10 7 9 9 11 11 11 11 11 10 10 9 9 10 11 10 10 10 10
19 20 21 21 19 18 19 18 18 18 17 15 15 15 14 13 13 12 11 12 12 13 14 14 13 13 13 13 12 12 11 11 10 10 11 12 12 12 11 11 10 11 10 10 10 10 10 10 9
19 19 20 20 18 19 18 20 19 18 18 17 16 15 15 14 13 13 11 10 11 12 14 14 13 13 13 12 13 12 12 11 10 10 8 11 12 12 11 11 11 11 11 10 10 10 10 9 9
18 19 19 20 20 19 20 19 21 19 19 18 17 16 16 15 14 13 13 11 10 10 11 14 13 13 13 13 12 12 12 12 11 11 11 11 11 11 11 11 11 11 10 10 10 10 10 10 9
18 19 19 19 20 20 20 18 21 17 20 19 18 17 16 16 15 14 13 13 11 10 11 14 14 14 14 14 13 13 13 12 10 11 11 11 11 11 11 11 11 10 10 10 10 10 10 10 9
17 18 19 20 21 21 19 20 17 21 20 19 19 19 17 16 16 15 14 13 13 15 15 15 15 15 14 14 14 13 12 12 12 12 11 11 11 11 11 11 10 10 10 10 10 10 10 9 9
17 18 19 19 21 22 21 21 21 21 20 19 18 19 19 17 16 15 15 14 15 16 16 16 16 15 15 14 14 13 13 12 12 12 12 11 11 11 11 10 10 10 9 9 9 9 9 9 9
18 18 19 20 20 21 21 21 20 19 19 19 19 19 19 18 17 16 15 16 16 16 16 16 16 15 15 14 14 13 13 12 12 12 12 12 11 11 11 10 10 10 9 9 9 9 9 9 9
17 18 18 19 20 21 22 21 21 20 19 19 19 19 19 19 18 17 16 15 16 16 16 16 15 15 15 14 14 13 13 13 13 12 12 12 11 11 11 11 11 10 10 8 7 8 9 8 8
16 17 18 19 19 22 22 22 21 20 19 19 19 19 20 19 19 18 17 15 17 17 16 15 15 15 15 14 14 14 13 13 13 13 12 12 12 11 11 10 10 10 9 8 8 7 7 8 8
17 17 18 19 19 19 20 22 21 21 20 19 20 20 20 20 20 19 18 16 15 17 17 16 15 15 15 15 14 14 13 13 13 13 13 12 12 12 12 11 10 10 10 9 8 6 7 8 8

GFSSGP_700_temp_030.txt.gz
Temp
12 11 11 10 11 10 13 12 12 12 12 11 11 11 11 11 11 11 9 9 9 9 8 8 9 9 9 9 9 9 9 9 9 8 8 8 9 9 8 9 9 9 9 9 9 9 9 9 9
13 12 10 10 12 12 14 12 13 12 12 12 11 10 11 11 12 11 9 9 9 9 9 9 9 9 9 9 9 9 9 9 8 8 8 9 9 8 9 9 9 9 9 9 9 9 9 9 9
13 13 10 11 14 12 14 13 13 13 12 12 11 10 12 11 11 11 10 9 9 9 9 9 9 9 9 9 9 9 9 9 8 8 9 9 9 9 9 9 9 9 9 9 9 9 9 9 9
14 11 12 13 15 15 14 14 14 13 13 12 11 10 10 10 12 11 11 10 10 9 9 9 9 9 9 9 9 9 9 9 9 9 9 9 9 9 9 9 9 9 9 9 9 10 10 9 9
13 12 12 18 16 16 15 15 14 14 13 11 10 10 10 10 11 11 10 10 10 9 9 9 9 9 9 9 9 9 9 9 9 9 9 9 9 9 9 9 9 9 9 9 9 10 10 10 10
11 12 14 19 18 16 16 15 14 14 13 11 10 9 10 11 10 10 10 10 10 10 10 10 9 9 9 10 9 10 9 9 9 9 9 9 9 9 9 9 9 9 9 9 9 10 10 10 10
12 14 16 19 17 17 16 16 14 15 13 12 11 10 9 10 10 10 9 10 9 10 10 10 10 10 10 10 10 10 10 9 9 9 9 9 9 9 9 9 9 9 9 9 10 9 10 10 10
13 14 16 19 18 17 16 15 15 15 13 12 12 10 9 9 9 9 9 8 8 10 10 10 10 10 10 10 10 10 9 9 9 9 9 9 9 9 10 9 9 9 9 9 9 10 9 9 9
14 12 17 18 18 17 16 16 15 13 14 12 12 11 10 9 10 9 8 9 9 10 10 10 11 10 10 10 10 10 9 9 9 9 9 9 9 9 9 10 10 10 10 10 10 9 9 9 8
14 13 15 14 17 17 17 16 15 14 14 13 12 11 10 10 10 9 9 10 10 10 10 10 10 10 10 10 10 10 10 10 10 10 10 10 8 9 9 9 9 8 9 9 9 9 8 8 8
13 14 15 17 18 17 17 16 15 14 14 14 12 11 10 10 9 9 10 10 11 11 11 10 11 10 11 11 10 10 10 10 10 10 10 9 9 8 8 9 9 8 9 8 8 9 8 7 7
15 13 16 18 18 18 17 16 16 15 15 14 12 10 10 10 10 10 9 9 11 10 11 10 12 11 10 10 11 11 11 11 11 10 9 10 9 9 8 9 8 8 8 7 9 8 10 10 9
16 16 17 18 18 18 17 17 16 16 15 14 12 10 10 10 10 10 10 9 11 11 10 9 12 11 11 10 11 10 7 8 9 10 9 10 9 10 9 9 9 9 9 8 9 9 10 9 9
19 18 18 19 18 18 18 17 16 15 15 14 12 11 10 10 10 10 10 9 11 12 11 12 12 12 12 12 11 11 10 10 9 8 9 10 9 10 8 9 9 9 9 9 9 9 9 9 9
18 18 19 19 18 18 18 16 16 15 15 14 12 11 11 11 10 10 10 10 12 13 13 13 13 12 12 11 11 11 11 10 10 9 9 10 9 10 9 9 9 8 9 9 9 9 9 9 9
18 19 19 19 19 18 18 17 16 15 15 14 13 12 11 11 11 10 10 11 13 13 13 13 13 13 12 12 12 11 11 11 9 9 9 9 9 10 10 9 9 9 9 9 8 9 8 10 9
18 19 20 19 19 19 17 15 16 15 15 14 13 12 12 11 11 11 11 12 13 13 14 13 13 13 13 13 12 12 12 11 10 9 9 10 10 10 10 10 10 10 9 9 9 9 8 9 10
19 19 20 19 19 19 18 16 14 15 15 15 14 13 12 12 12 11 12 12 12 14 14 14 13 13 14 13 13 12 12 12 11 10 10 9 10 10 10 10 10 9 9 10 9 10 9 10 11
19 20 20 19 18 19 18 16 14 15 16 15 15 14 13 13 12 11 12 11 12 13 14 14 14 14 14 14 13 13 13 12 11 10 10 10 9 10 11 10 10 8 10 9 10 10 10 10 10
18 20 21 20 18 18 19 18 17 16 16 16 15 14 14 13 13 12 11 11 13 14 14 14 14 14 14 13 13 13 12 13 11 10 10 11 11 11 11 11 11 11 11 10 10 10 10 10 10
18 19 20 20 19 19 20 19 19 18 17 16 16 16 15 14 13 13 12 12 13 14 14 14 14 14 13 13 13 13 12 12 10 11 9 11 12 12 12 11 11 11 11 11 11 10 10 10 10
19 19 20 20 19 19 19 20 19 19 18 17 17 16 16 15 14 13 13 11 12 13 14 14 14 14 13 13 13 13 13 12 12 11 11 12 12 12 12 12 11 11 11 10 10 10 10 10 10
19 19 20 20 20 19 18 18 19 19 19 18 17 17 16 16 15 14 13 13 12 12 14 15 15 14 14 13 13 13 13 13 13 12 12 12 12 12 11 11 11 11 11 10 10 10 10 10 10
19 19 20 20 20 21 19 18 18 19 19 19 18 18 17 17 16 15 14 14 13 13 13 15 16 14 14 13 13 13 13 13 13 12 12 12 11 11 11 11 11 11 11 10 10 10 10 10 9
18 19 20 20 21 21 20 18 18 20 19 19 18 18 18 17 17 16 15 14 14 15 14 15 17 16 14 14 14 14 14 13 13 13 12 12 12 11 11 11 11 11 11 10 10 10 10 9 9
18 19 20 19 21 22 21 22 19 20 19 19 16 16 18 18 17 16 16 16 15 15 15 15 17 16 15 15 14 14 14 13 13 12 12 12 12 12 12 11 11 11 10 10 10 9 9 9 9
19 19 19 20 20 21 22 22 22 21 20 18 17 19 18 18 18 17 16 17 16 16 16 16 17 16 15 15 15 14 14 13 13 12 12 12 12 12 12 11 11 11 10 10 9 8 9 8 8
18 18 19 19 19 20 22 22 22 21 20 18 18 19 19 19 18 17 17 17 17 17 17 16 16 16 16 15 15 14 14 14 13 13 13 12 12 12 12 11 11 11 10 10 9 9 9 8 8
17 17 18 19 20 21 21 22 22 21 20 20 19 19 19 20 19 19 18 18 19 18 17 17 16 16 16 15 15 14 14 14 13 13 13 13 12 12 12 12 11 11 11 10 9 9 9 8 7
18 17 17 18 19 20 20 22 22 22 21 20 20 20 20 19 20 20 19 18 18 18 18 18 16 16 16 16 15 15 14 14 13 13 13 13 13 12 12 12 12 11 11 10 9 9 9 8 8

GFSSGP_700_temp_033.txt.gz
Temp
11 11 11 11 10 10 12 12 12 12 12 12 12 12 12 11 10 10 8 9 8 9 9 9 9 9 9 9 9 9 9 9 9 9 9 9 9 9 9 9 9 9 9 9 9 9 9 9 9
11 11 11 11 11 11 12 12 12 12 12 11 13 13 12 11 11 10 9 9 9 9 9 9 9 9 9 9 9 9 9 9 9 8 9 9 9 9 9 9 9 9 9 9 9 9 9 9 9
11 11 10 11 13 12 12 13 12 11 12 12 13 12 12 11 11 10 10 10 9 9 9 9 9 9 9 9 9 9 9 9 9 9 9 9 9 9 9 9 9 9 9 9 9 9 9 9 9
11 11 11 11 13 14 14 13 12 11 11 12 13 12 11 11 11 11 10 10 10 9 9 9 9 9 9 9 9 9 9 9 9 9 9 9 9 9 9 9 9 9 9 9 9 9 9 9 8
11 11 11 13 14 14 14 13 12 11 11 12 13 11 11 10 11 11 11 10 10 10 9 9 9 9 9 9 9 9 9 9 9 9 9 9 9 9 9 9 9 9 9 9 9 9 9 8 8
12 13 13 14 15 15 14 14 13 12 12 12 12 12 10 10 11 11 11 10 10 10 10 9 9 9 9 10 10 10 9 9 9 9 9 9 9 9 9 9 9 9 9 9 9 9 9 8 8
13 11 14 16 16 15 14 14 12 12 12 12 12 12 10 10 11 11 11 10 10 10 10 10 9 10 10 10 10 10 9 9 9 9 9 9 9 9 9 9 9 9 9 9 9 9 9 8 9
10 11 13 16 17 15 15 15 14 13 12 12 13 13 10 10 10 11 10 11 10 10 10 10 10 10 10 10 10 10 10 9 9 9 9 9 9 9 9 9 9 9 9 9 9 9 9 9 8
10 10 13 15 17 16 16 15 14 13 13 12 11 12 12 10 10 10 10 11 10 10 10 11 11 10 10 10 10 10 10 9 9 9 9 9 10 9 9 9 10 9 9 9 9 9 8 9 8
13 12 11 15 16 16 16 15 14 13 12 12 11 10 11 10 10 10 10 11 10 10 11 11 11 11 10 10 10 10 10 10 9 9 9 9 10 10 9 9 10 9 9 9 9 9 9 8 8
13 14 15 15 16 16 16 15 14 14 13 12 12 11 11 9 10 10 11 11 11 11 11 11 11 11 10 10 10 10 10 10 9 9 9 9 8 10 9 9 9 9 9 9 9 9 9 9 9
15 16 16 16 16 16 16 16 15 14 13 13 12 12 11 10 10 10 10 10 11 11 12 12 11 11 11 11 11 10 10 10 9 10 10 10 10 10 10 10 9 10 9 9 9 9 9 10 8
15 17 17 17 16 16 16 16 15 15 14 13 12 11 10 10 10 10 10 11 11 12 11 12 11 12 11 12 11 10 10 11 11 10 11 10 10 9 9 8 9 9 9 9 9 9 8 9 8
16 16 17 18 18 16 16 16 16 14 14 13 13 12 10 10 10 10 11 12 12 12 13 13 11 12 12 12 12 12 12 11 10 10 9 10 10 10 10 9 9 9 9 10 9 9 8 8 8
16 16 17 18 18 17 15 16 15 15 14 14 13 13 12 10 10 10 12 12 12 12 13 13 13 12 12 12 11 11 11 10 9 10 11 9 10 10 10 9 9 9 9 9 9 8 9 9 9
16 17 17 18 19 17 17 16 16 15 14 14 14 13 12 11 10 10 10 13 13 12 14 14 13 12 12 12 12 11 11 11 10 10 10 9 9 9 9 10 9 10 9 9 8 9 9 9 10
16 17 18 18 17 18 18 16 15 15 14 14 13 13 11 11 10 10 11 13 14 13 14 14 13 13 12 12 12 12 11 11 11 12 11 10 9 9 9 9 10 10 9 10 9 9 9 10 10
16 17 18 18 18 18 18 17 16 15 15 15 14 13 12 11 11 12 12 13 14 14 14 14 14 14 13 13 13 12 12 12 12 12 10 10 10 10 9 10 10 10 10 10 10 10 11 11 10
16 17 18 19 18 18 18 18 17 16 15 14 14 14 12 12 12 11 11 12 13 14 14 14 14 14 14 14 13 13 12 12 11 11 11 11 11 10 11 10 11 11 11 11 11 11 11 11 10
16 17 17 18 19 18 17 16 16 17 16 15 14 14 13 13 12 11 11 11 14 14 14 14 14 14 14 14 13 13 12 12 12 11 12 11 11 11 11 12 12 11 11 12 11 11 11 11 10
16 16 17 18 17 17 17 17 15 17 17 15 15 15 15 14 13 12 12 12 13 14 14 14 14 14 14 14 13 13 12 13 13 12 11 9 12 12 12 12 12 12 12 11 11 11 11 11 10
16 17 17 17 17 15 17 15 15 17 16 16 15 15 15 15 14 14 13 12 13 14 14 14 14 14 14 13 13 13 13 13 13 13 12 12 12 12 12 12 12 12 11 11 10 10 10 10 10
16 17 17 18 19 17 18 15 19 18 16 16 16 16 16 16 16 15 14 14 14 13 14 15 14 14 14 13 14 13 13 13 13 13 13 13 13 12 12 12 11 11 11 10 10 10 10 10 10
17 17 17 18 19 15 18 15 17 18 16 16 16 17 16 16 16 16 16 15 14 14 14 14 15 14 14 14 14 14 14 14 14 13 13 13 12 12 12 11 11 11 10 10 10 9 9 9 9
17 17 17 16 17 15 18 17 18 19 19 17 18 17 17 16 16 16 16 16 16 16 16 16 15 15 15 14 15 15 14 14 13 13 13 13 12 12 12 11 11 11 10 10 10 9 9 9 8
18 18 17 13 15 17 20 17 18 19 20 19 18 18 17 17 17 16 16 16 16 16 17 16 16 15 15 15 15 15 15 14 13 13 12 12 12 12 12 11 11 11 11 10 10 10 10 9 8
18 18 18 18 19 18 19 20 20 20 19 19 19 18 18 18 17 16 17 16 17 16 17 17 17 16 16 16 16 15 15 14 14 13 12 12 12 12 12 12 11 11 10 10 10 10 10 9 8
18 18 18 18 15 15 18 20 20 21 19 19 19 18 18 18 17 16 16 17 17 17 17 17 17 17 16 16 16 15 15 14 13 13 13 13 13 13 12 12 11 11 11 11 10 10 10 9 9
18 18 18 18 18 15 15 18 20 21 20 19 19 19 19 18 17 17 17 18 17 17 18 17 18 17 16 16 16 15 15 14 14 14 14 13 13 12 12 12 12 11 11 11 10 10 10 10 9
18 18 18 17 17 18 18 18 20 20 20 20 21 19 19 19 18 17 18 18 18 18 19 18 18 17 17 16 16 16 15 14 14 14 14 13 13 13 13 12 12 12 11 11 10 10 10 9 9

GFSSGP_700_temp_036.txt.gz
Temp
11 10 10 11 11 11 11 11 12 12 12 12 12 11 12 11 10 11 9 8 9 9 9 9 9 9 9 9 9 8 8 8 8 8 8 8 8 9 9 9 9 9 9 9 9 9 9 8 9
12 11 10 10 10 11 11 11 12 12 13 12 13 12 12 12 11 10 10 9 9 9 9 9 9 9 9 9 8 8 8 8 8 8 8 8 9 9 9 9 9 9 9 9 9 9 9 8 9
12 11 10 10 11 12 12 12 12 12 12 13 14 11 12 12 10 10 10 9 9 9 9 9 9 9 9 9 8 8 8 8 8 9 8 8 9 9 9 9 9 9 9 9 9 9 9 9 8
12 12 12 11 12 12 12 12 13 13 12 12 13 12 12 11 11 11 10 10 9 9 10 10 9 9 9 9 8 8 8 8 9 9 8 9 9 9 9 9 9 9 9 9 9 9 8 9 9
11 11 11 12 13 12 12 11 12 13 13 12 12 13 12 11 11 11 11 10 10 10 9 9 9 9 9 9 9 9 9 9 9 9 8 9 9 9 9 9 9 9 9 9 9 9 9 9 9
10 9 9 11 13 13 12 13 13 12 13 12 12 13 11 11 11 10 10 10 9 10 10 9 9 9 9 9 9 9 9 9 9 9 9 9 9 9 9 9 9 9 9 9 9 9 9 9 9
9 8 10 10 11 13 13 13 13 13 13 12 13 13 11 10 10 11 10 10 10 10 10 10 10 10 9 10 10 9 9 9 9 9 9 9 9 9 9 9 9 9 9 9 9 9 8 9 9
11 11 12 11 13 13 13 13 13 13 13 13 13 14 12 11 10 10 10 10 10 10 10 10 10 10 10 10 10 9 9 9 9 9 9 9 9 9 10 9 9 9 9 8 8 8 8 8 9
12 12 13 14 13 14 13 13 12 13 13 12 12 12 12 11 11 11 11 10 10 10 10 10 10 10 10 10 10 9 9 9 9 9 9 9 9 9 9 9 9 10 9 8 8 9 9 9 8
12 13 14 15 14 14 13 14 14 13 13 12 12 11 11 11 11 12 11 11 11 11 11 11 11 10 10 10 10 10 9 9 9 9 9 9 10 10 9 9 9 9 9 9 8 8 8 8 8
13 15 14 15 14 14 14 14 14 14 13 13 14 12 12 12 11 11 11 11 11 11 11 11 11 10 10 10 10 9 9 9 9 9 9 10 10 10 10 10 9 9 9 9 9 8 8 8 8
13 14 15 15 15 14 13 15 14 14 14 14 14 13 13 12 11 11 11 11 12 11 11 11 10 10 10 10 10 10 10 9 9 10 10 10 10 9 9 10 9 10 9 8 8 9 9 9 9
14 15 15 15 16 15 14 14 15 14 14 13 13 13 13 12 11 11 11 11 11 11 11 11 11 11 11 11 11 11 11 10 9 9 9 10 11 10 9 9 9 9 8 8 8 8 9 9 9
15 15 15 15 15 16 15 15 14 14 13 13 13 13 12 12 11 10 11 12 12 11 11 12 12 11 11 11 11 12 11 11 10 10 10 10 9 9 9 9 9 9 10 9 8 8 9 9 9
14 14 15 16 16 15 15 15 15 15 14 14 14 13 13 12 11 11 12 12 13 12 12 13 12 12 12 12 12 11 11 11 11 11 10 10 9 9 9 9 9 9 10 9 9 9 9 8 9
14 15 15 17 16 15 16 15 15 15 14 14 14 13 13 13 13 11 12 12 12 13 13 12 13 13 13 12 11 11 11 11 12 11 11 10 10 9 9 9 9 9 10 10 9 9 9 9 8
15 15 16 16 17 16 16 15 15 14 14 14 13 14 13 13 12 12 13 13 13 14 13 13 13 13 13 12 11 11 11 11 11 11 11 11 10 9 10 9 9 10 10 10 10 10 9 10 9
15 16 16 16 16 17 16 16 15 14 14 14 14 14 14 14 14 14 13 13 13 12 13 13 13 13 13 13 12 11 12 11 11 11 10 10 10 10 9 9 9 10 10 10 10 10 11 10 10
15 16 16 16 17 16 16 16 15 15 14 14 14 14 14 15 14 13 13 12 12 12 13 13 14 13 13 13 13 12 12 11 11 11 11 11 10 10 9 9 11 11 11 11 11 11 11 10 10
15 16 16 15 17 16 16 16 15 15 16 16 16 14 14 14 14 14 13 13 12 13 14 14 14 14 13 13 12 12 12 11 11 11 11 11 10 11 11 11 11 11 11 11 11 11 10 11 11
14 15 16 15 16 17 16 15 15 15 15 15 15 15 14 14 15 14 14 14 14 14 14 14 14 14 14 13 13 12 13 13 13 12 12 11 12 12 12 12 12 11 11 11 10 10 10 10 10
14 16 15 15 16 16 16 16 16 15 16 15 15 15 15 14 15 14 15 14 14 14 14 14 14 14 14 14 13 13 13 13 12 12 13 12 12 12 12 12 12 11 11 10 10 10 10 9 9
15 16 15 16 16 16 17 16 17 16 16 16 15 16 16 15 15 15 15 15 15 15 14 14 14 14 14 14 14 13 13 13 12 13 13 13 12 12 12 12 12 11 10 10 10 10 9 9 9
15 15 15 16 16 14 16 16 16 17 17 17 16 16 16 15 15 15 16 15 15 15 14 13 12 14 14 14 14 14 14 13 13 14 14 13 13 12 12 12 11 11 11 10 10 10 9 9 8
15 15 15 13 13 13 16 15 16 18 18 18 17 17 16 17 16 16 16 16 15 15 15 14 13 13 14 14 14 14 14 14 14 14 13 13 13 13 12 12 12 11 11 11 10 10 10 9 9
15 15 14 11 11 12 17 15 17 18 19 18 17 17 17 17 17 16 17 17 16 16 16 15 15 14 13 14 15 15 14 14 14 14 13 13 13 12 13 12 11 11 11 11 10 10 9 9 9
16 16 16 16 16 14 16 17 18 18 19 19 18 17 17 17 17 17 17 17 18 17 16 16 16 15 14 14 15 15 15 15 15 14 13 13 13 13 12 12 12 11 11 10 10 10 9 9 9
16 16 16 15 12 13 15 18 18 19 19 19 19 18 17 18 17 18 17 17 18 17 17 16 16 16 15 14 15 15 15 15 14 14 13 14 13 13 12 12 12 11 11 11 10 10 10 9 9
16 16 16 17 16 14 12 16 18 18 19 19 19 19 19 18 18 18 17 17 19 18 17 16 16 16 16 15 14 16 16 15 15 14 14 14 13 13 12 12 12 11 11 11 11 10 10 9 9
16 16 16 16 16 16 17 16 18 19 19 19 19 19 19 18 18 18 19 19 18 18 17 17 17 16 16 16 15 16 16 15 15 14 14 13 13 13 13 12 12 12 11 11 11 10 10 9 9

GFSSGP_700_temp_042.txt.gz
Temp
11 11 10 10 10 10 11 11 11 11 11 10 10 10 10 10 10 10 10 10 9 9 9 8 8 8 9 9 9 8 8 8 9 9 8 8 8 8 8 8 9 9 9 9 9 9 9 9 9
11 11 11 11 11 11 12 12 11 11 11 11 10 10 10 10 10 10 10 9 9 9 9 8 8 9 9 9 9 8 8 8 8 8 8 8 9 9 9 9 9 9 10 10 10 9 9 9 9
12 11 11 11 11 11 12 11 11 11 11 10 10 10 10 10 11 9 9 8 9 9 9 8 9 9 9 9 8 8 8 8 8 8 8 8 9 9 9 9 10 9 9 9 9 9 9 9 9
12 11 12 11 11 12 12 12 11 11 11 11 11 10 10 10 10 10 10 9 9 9 9 9 9 9 9 8 8 8 8 8 8 8 8 9 9 9 9 9 9 9 9 10 10 9 9 9 8
12 11 12 12 12 12 12 12 12 12 11 12 12 11 11 10 10 10 10 10 9 9 9 9 9 8 8 8 8 8 8 8 8 8 9 9 9 9 9 9 9 9 9 10 9 9 9 9 9
12 12 13 13 12 12 12 12 12 12 12 12 11 12 11 10 10 10 10 10 9 9 9 9 8 8 8 8 8 8 8 8 8 9 9 9 9 9 9 9 9 9 9 9 9 9 8 8 8
11 12 13 12 12 13 12 12 12 12 12 12 12 12 11 10 9 10 10 9 9 9 9 9 9 8 8 8 8 8 9 8 8 9 9 9 9 9 9 9 9 9 9 9 9 8 8 8 8
9 10 11 13 13 13 13 12 12 12 13 12 11 13 12 11 10 10 9 9 9 9 9 9 9 9 8 8 8 9 9 8 8 9 9 9 9 9 9 9 9 9 9 9 9 8 8 8 8
12 11 11 13 14 14 13 12 12 12 13 12 12 12 12 12 11 10 10 10 9 9 9 9 9 9 9 9 9 9 9 8 9 9 9 9 9 9 9 9 9 9 9 9 9 9 8 8 8
13 13 13 13 14 14 13 12 13 13 13 12 12 12 11 12 11 11 11 11 10 10 9 9 9 9 9 9 9 9 9 9 9 9 9 8 9 9 9 9 9 9 9 9 9 9 9 8 8
13 13 13 13 13 13 13 13 12 13 13 13 12 12 12 12 12 11 11 11 11 10 10 10 10 10 10 9 9 9 9 9 9 9 9 8 8 8 8 8 9 9 9 9 9 9 9 9 8
13 13 13 13 13 13 14 13 14 13 13 12 13 12 12 12 12 12 11 11 11 11 10 10 10 10 10 10 9 9 9 9 9 9 9 9 9 9 9 9 9 9 9 9 8 8 8 8 8
14 14 13 13 13 14 14 14 14 13 13 13 13 13 13 12 12 11 11 11 11 11 11 11 11 11 10 10 10 10 9 9 10 9 9 9 9 9 9 9 8 8 8 8 8 8 8 8 8
14 14 14 13 12 12 13 13 13 13 13 13 13 13 13 12 12 11 11 12 12 11 11 11 11 11 11 10 10 10 10 10 10 10 9 9 9 9 9 9 9 8 9 9 8 9 8 8 8
14 14 14 14 14 13 13 13 14 13 13 13 13 12 12 12 12 12 12 12 12 12 11 11 11 11 11 10 10 10 10 10 10 10 10 9 9 9 9 9 9 9 9 9 9 9 9 9 9
13 14 14 14 14 14 13 13 14 13 13 13 13 13 12 13 12 12 12 12 12 12 12 11 11 11 11 11 10 10 10 9 10 10 10 9 9 9 9 9 9 9 9 9 9 9 9 9 9
12 13 14 15 15 15 14 14 14 14 14 13 13 13 13 13 12 12 12 12 12 12 12 12 12 11 11 11 10 10 10 9 9 10 10 9 9 9 9 9 10 9 10 9 9 9 9 9 9
12 12 14 14 15 15 15 15 15 14 14 14 14 13 13 14 13 13 13 13 12 12 12 12 11 11 11 11 10 10 11 10 10 10 9 9 9 9 9 9 9 9 10 10 10 10 10 9 9
12 13 14 15 15 15 15 15 15 15 15 14 14 13 13 14 14 13 13 13 13 12 12 12 12 12 11 11 11 12 12 11 11 11 10 9 9 9 9 9 10 10 10 10 10 10 10 10 9
12 13 14 15 15 15 15 15 15 15 15 15 15 14 14 14 14 13 13 13 13 13 13 13 12 12 12 11 11 11 11 11 11 11 11 10 10 9 9 10 10 10 10 10 10 9 9 9 9
12 12 13 15 14 15 15 15 14 15 15 14 15 14 14 14 14 14 13 14 14 14 13 13 13 13 12 12 11 11 12 12 12 12 11 11 10 10 10 11 11 10 10 10 9 9 9 9 9
12 12 12 13 13 14 15 13 15 15 15 15 15 15 15 14 13 14 14 14 14 14 14 14 13 13 12 12 12 12 12 12 12 11 11 11 10 10 11 11 11 10 10 10 9 9 9 8 8
12 12 13 13 13 13 14 13 15 15 15 15 16 16 15 15 14 14 14 14 14 14 14 14 14 13 13 13 13 12 12 12 12 12 11 11 11 11 11 11 11 10 10 9 9 9 9 8 8
12 12 12 12 12 11 14 14 14 15 16 16 16 16 16 16 15 15 15 14 14 14 14 14 14 14 13 13 13 13 13 12 12 12 12 12 12 12 12 11 11 10 10 10 10 9 9 9 9
11 12 11 10 8 10 14 13 14 16 16 17 16 17 17 17 17 16 16 15 14 14 14 14 14 14 14 13 13 13 13 12 12 12 12 12 12 12 12 11 11 11 10 10 10 10 9 9 9
11 11 11 7 6 12 13 13 15 16 16 17 16 16 16 16 17 17 17 16 15 15 14 14 14 14 14 13 13 13 12 13 13 12 12 12 12 12 12 11 11 11 11 10 10 10 10 9 9
11 10 12 12 10 10 14 15 15 16 17 17 17 17 17 17 17 17 17 17 16 15 15 14 14 14 14 13 12 11 11 12 13 13 13 13 13 12 12 11 11 11 11 10 10 10 10 10 9
12 12 11 11 9 8 11 13 16 16 17 17 17 17 18 18 17 18 17 17 17 16 16 15 15 14 14 13 12 12 11 11 12 13 13 13 13 12 12 12 11 11 11 11 10 10 10 10 9
11 12 12 12 12 8 7 13 15 16 17 18 18 18 19 18 18 18 18 18 17 17 17 16 16 15 15 14 13 13 12 11 11 13 13 13 13 13 12 12 12 11 11 11 11 11 10 10 10
13 12 12 12 11 12 12 13 17 17 17 18 18 19 19 18 18 18 19 18 18 17 17 17 16 16 16 15 14 14 13 12 11 13 14 13 13 13 13 12 12 12 12 11 11 11 11 10 10

GFSSGP_700_temp_045.txt.gz
Temp
11 11 11 10 10 11 11 11 10 10 11 10 10 10 10 10 10 10 10 9 9 9 9 9 8 8 8 8 8 8 8 8 8 8 9 9 9 9 9 9 9 9 9 9 9 9 8 8 8
12 11 11 11 11 11 11 11 11 10 10 10 10 10 10 10 10 10 11 9 9 9 9 9 8 8 8 8 8 8 8 8 9 9 9 9 9 9 9 9 9 9 9 9 9 9 8 8 8
12 12 12 11 11 11 11 11 11 11 11 10 10 10 10 10 10 10 10 10 9 9 9 9 9 8 8 8 8 8 8 9 9 9 9 9 9 9 9 9 9 9 9 9 9 9 8 8 8
12 12 12 12 12 11 11 11 11 11 10 10 10 9 10 10 9 10 10 10 9 9 9 9 9 8 8 8 8 8 9 9 9 9 9 9 9 9 9 9 9 9 9 9 9 9 9 8 8
12 12 13 13 12 12 12 12 11 11 11 11 11 11 10 10 9 10 10 10 9 9 9 9 9 8 8 8 8 9 8 8 9 9 9 9 9 9 9 9 9 9 9 9 9 9 9 8 8
12 12 13 13 13 12 12 12 11 11 11 12 12 12 11 10 10 10 10 10 9 9 10 9 9 8 8 8 9 8 8 9 9 9 9 9 9 9 9 9 9 9 9 9 9 9 9 9 8
12 13 13 14 13 13 12 12 11 11 11 12 11 12 11 11 10 10 10 10 10 9 9 9 9 8 8 9 8 8 8 9 9 9 9 9 9 9 9 9 9 9 9 9 8 8 8 8 8
10 12 13 13 13 13 13 12 12 12 12 11 11 12 12 11 11 10 10 10 10 9 9 9 9 9 9 9 8 9 9 9 8 8 9 9 9 9 9 9 9 9 9 8 8 8 8 8 8
11 11 12 13 13 13 13 13 12 12 12 12 11 12 11 12 11 10 10 10 10 9 9 9 9 9 9 9 9 9 9 9 8 8 9 9 9 9 9 9 9 9 9 9 8 8 8 8 8
13 12 13 13 13 13 13 13 12 12 12 12 12 12 11 12 12 11 11 10 10 10 10 10 10 9 9 9 9 9 9 9 9 9 8 8 9 9 9 9 9 8 9 9 9 8 8 8 8
13 13 13 13 13 13 13 13 13 12 12 12 12 12 12 12 12 11 11 10 10 10 10 10 10 10 9 9 9 9 9 9 9 9 9 9 9 9 9 8 8 8 8 9 9 8 8 8 8
13 13 13 13 13 13 13 13 13 13 12 12 11 11 11 12 12 11 11 10 10 11 10 10 10 10 10 9 9 9 9 9 9 9 9 9 9 9 9 9 9 8 9 9 9 8 8 8 8
14 13 13 13 13 13 14 14 13 13 12 12 13 12 11 12 12 11 10 10 10 11 11 11 10 10 10 10 10 10 9 9 9 9 9 9 9 9 9 9 9 9 8 8 8 8 8 9 8
14 13 13 13 13 14 14 13 13 13 13 12 13 13 12 11 12 11 11 11 11 11 11 11 11 10 10 10 10 10 10 10 10 9 9 9 9 9 9 8 8 9 9 8 8 8 8 7 7
14 14 13 14 13 14 13 13 13 13 13 13 12 13 13 11 11 12 11 12 11 11 11 11 11 11 11 10 10 10 10 10 10 9 10 10 9 9 9 9 9 9 9 9 9 9 8 8 7
13 13 13 14 14 14 13 14 14 13 13 13 12 12 13 13 11 11 11 11 11 11 12 11 11 11 11 11 10 10 10 10 9 9 9 10 9 9 9 9 9 9 9 9 9 9 8 8 9
12 13 14 14 14 14 14 14 15 14 14 13 13 13 13 13 12 12 12 11 11 11 11 11 11 11 11 10 10 10 10 10 9 10 10 10 9 9 9 9 9 9 9 10 9 9 9 9 9
11 12 13 14 14 14 15 15 15 14 14 14 13 13 13 14 13 12 12 12 11 11 12 11 11 11 11 11 10 10 10 10 10 10 10 10 9 9 9 9 9 9 10 10 10 10 9 9 9
11 12 13 14 14 14 15 15 15 15 14 14 14 13 13 14 13 12 12 12 12 12 12 12 12 12 11 12 11 11 11 11 10 10 10 10 9 9 9 10 10 10 10 10 9 9 9 9 9
11 11 12 13 14 14 15 15 15 15 16 15 15 14 14 13 13 13 13 13 13 13 13 13 12 12 12 12 11 11 11 10 10 10 10 10 10 10 10 10 10 10 10 10 9 9 9 9 9
11 11 12 13 13 14 14 15 15 16 15 15 14 14 14 13 13 14 13 13 13 13 13 13 13 13 12 12 12 11 11 12 12 11 11 11 10 10 10 10 11 10 10 10 9 9 8 9 9
11 11 11 11 12 13 14 16 15 15 16 16 15 15 14 14 13 13 14 13 13 14 13 13 13 13 13 12 12 12 12 12 11 11 11 11 10 10 10 11 11 10 10 10 9 9 8 8 9
10 11 12 12 12 12 13 14 15 15 15 16 16 16 15 15 14 14 13 14 14 14 14 14 13 13 13 13 13 12 12 12 11 11 11 11 11 11 11 11 11 10 10 10 9 9 9 9 9
10 10 11 11 12 13 13 13 15 14 16 16 16 16 16 15 15 14 14 13 14 14 14 14 13 13 13 13 13 13 13 12 12 12 12 12 12 12 12 12 11 10 10 10 10 9 9 9 9
10 11 12 12 12 14 14 13 14 15 15 16 17 17 17 16 16 15 14 14 14 14 14 14 14 14 13 13 13 13 13 12 12 12 12 12 12 12 12 12 11 10 10 10 10 10 9 9 9
10 11 14 13 15 15 13 14 14 15 16 16 16 17 17 17 16 16 16 15 15 14 14 14 14 14 14 13 13 13 13 13 12 12 12 12 12 12 12 12 11 11 10 10 10 10 10 9 9
10 11 12 13 12 13 14 14 14 15 15 16 17 17 17 17 17 17 17 16 15 15 15 14 14 13 14 13 13 13 13 13 13 12 12 12 12 12 12 12 11 11 11 11 10 10 10 10 10
11 11 10 11 13 13 15 13 15 16 16 16 17 17 17 18 18 17 17 17 17 16 16 15 14 14 13 14 13 13 13 13 12 12 12 12 12 12 12 12 11 11 11 11 11 11 10 10 10
10 10 11 12 12 15 15 16 15 15 16 17 18 18 18 18 18 18 18 18 18 17 16 16 15 15 14 13 13 13 12 12 12 11 12 12 12 12 12 12 12 12 11 11 11 11 11 11 10
11 11 11 12 11 11 14 15 16 16 15 16 17 18 18 18 18 18 18 18 18 18 17 17 16 15 15 14 14 13 13 12 12 12 12 12 13 13 12 12 12 12 11 11 11 11 11 11 11

GFSSGP_700_temp_048.txt.gz
Temp
12 11 11 10 10 11 12 12 12 11 11 11 10 10 10 10 11 10 9 9 9 9 9 8 8 8 8 8 9 9 9 9 9 9 9 9 9 9 9 9 9 9 9 9 8 8 8 8 8
11 11 10 11 10 12 13 12 12 11 11 11 11 10 9 10 10 10 10 9 8 9 9 8 8 8 8 9 9 9 8 9 9 9 9 9 9 9 9 9 9 9 9 8 8 8 8 8 9
11 11 11 11 12 13 13 12 11 11 11 9 10 9 9 10 10 10 10 9 9 9 9 8 9 8 8 8 9 9 9 9 9 9 9 9 9 10 9 9 9 9 9 8 8 8 8 8 9
11 11 11 11 14 13 13 12 10 10 10 10 9 10 10 10 10 10 10 9 9 9 9 9 9 8 8 8 9 9 9 9 9 9 9 9 9 9 9 9 9 9 9 9 9 8 8 8 8
12 11 11 12 14 13 12 11 11 11 10 9 9 10 10 10 10 10 10 9 9 9 9 9 9 8 8 9 9 9 9 9 9 9 9 9 9 9 9 9 9 9 9 9 9 9 8 8 8
10 12 12 15 14 13 12 11 11 10 12 11 10 11 10 10 10 10 10 9 9 9 9 9 9 8 8 9 9 9 9 9 9 9 9 9 9 9 9 9 9 9 9 9 9 9 8 8 8
11 10 13 13 14 14 12 11 11 11 11 11 11 10 11 10 10 10 10 9 9 9 9 9 9 9 9 9 9 9 9 9 9 9 9 9 9 9 9 9 9 9 9 8 8 8 8 8 8
12 11 13 14 15 14 12 11 11 11 10 11 11 12 12 11 10 10 10 9 9 9 9 9 9 9 9 9 9 9 9 9 9 9 9 9 9 9 9 9 9 8 8 8 9 9 8 8 8
11 11 14 15 14 14 12 12 11 12 12 11 11 12 12 12 10 10 10 10 10 10 9 9 9 9 9 9 9 9 9 9 9 9 9 9 9 9 9 9 9 9 8 8 8 9 9 9 8
12 13 15 13 13 14 13 13 13 11 12 12 12 12 11 12 11 11 11 11 10 10 10 9 9 9 9 9 9 9 9 9 9 9 9 9 9 9 9 9 9 9 8 8 8 8 9 9 7
13 13 13 13 13 13 13 13 12 12 11 11 12 12 12 12 12 11 11 10 10 10 10 9 9 10 10 10 9 9 9 9 9 9 9 9 9 9 9 8 8 8 9 8 8 8 7 8 7
13 13 12 13 13 13 13 13 12 12 12 11 12 11 12 11 12 11 11 10 10 10 10 10 10 10 10 10 9 9 9 9 9 9 9 9 9 9 9 9 9 8 9 8 8 7 8 8 8
14 12 13 13 13 13 13 13 13 12 12 12 13 12 11 11 11 11 11 10 10 10 10 10 10 10 10 10 10 10 10 9 9 9 9 9 9 9 9 9 9 9 9 8 8 8 8 8 8
13 13 13 13 13 13 13 13 12 12 13 12 13 13 12 11 11 11 11 10 10 10 10 11 11 10 10 10 10 10 10 10 9 9 9 9 9 9 9 8 9 9 9 9 8 8 8 8 7
12 12 13 13 14 14 14 13 13 13 13 13 13 13 12 11 11 12 11 11 11 10 10 11 11 11 10 10 10 10 10 10 10 9 9 10 10 9 9 9 9 9 9 9 9 9 8 8 7
12 13 14 15 14 14 14 16 14 13 13 13 13 13 13 12 12 12 11 11 11 10 11 11 11 11 11 11 11 10 10 10 10 10 9 10 10 9 9 9 9 9 9 9 9 8 7 9 8
13 15 15 15 15 15 14 16 15 14 14 13 13 13 13 13 12 12 12 11 11 11 11 11 11 11 11 11 11 11 11 10 10 10 10 10 10 9 9 9 9 9 9 9 9 9 9 9 8
15 15 16 16 15 15 15 15 15 14 13 12 14 13 13 13 13 13 12 12 11 11 11 11 11 11 11 11 11 11 11 11 10 10 10 10 10 10 9 9 9 9 9 9 9 9 9 9 8
15 15 16 16 16 15 15 16 16 15 13 13 12 14 13 13 13 12 12 12 12 12 11 11 11 11 11 12 12 12 11 11 11 10 10 10 10 10 10 10 10 9 10 9 9 8 9 9 9
13 14 15 16 15 14 16 16 16 16 14 13 12 13 14 13 13 13 13 12 12 12 12 12 12 12 12 12 12 11 11 11 11 10 10 10 10 10 10 10 10 10 10 9 9 9 9 9 9
12 14 15 15 15 15 15 16 16 15 14 13 13 13 11 13 13 14 13 13 13 13 13 13 12 12 12 12 12 12 11 11 12 12 11 11 11 10 10 11 10 10 10 9 9 9 8 9 9
13 13 13 14 14 16 16 18 17 16 15 14 14 13 14 14 13 13 14 14 13 13 13 13 13 13 13 12 12 12 12 12 11 11 11 11 11 10 10 11 11 10 10 10 9 9 9 9 9
13 14 13 13 14 15 16 16 17 17 16 15 14 14 14 15 14 14 14 14 14 14 13 13 13 13 13 13 13 12 12 12 12 12 12 12 12 11 11 11 11 11 10 10 10 9 9 9 9
12 13 13 13 14 16 16 16 17 17 16 16 15 14 15 14 14 14 14 14 14 14 14 13 13 13 13 13 13 13 13 12 12 12 12 12 12 11 11 12 12 11 10 10 10 10 9 9 9
11 12 15 15 16 17 17 16 17 17 17 16 16 16 15 16 16 15 14 14 13 14 14 14 14 14 14 13 13 13 13 13 13 12 12 12 12 12 12 12 12 11 11 10 10 10 10 10 10
12 13 16 16 18 19 16 17 17 17 17 16 16 17 15 15 16 16 15 15 14 14 14 14 14 14 14 14 14 14 13 13 13 12 12 12 12 12 12 13 12 11 11 11 10 10 10 10 10
12 12 15 17 17 17 19 17 17 16 16 16 16 16 16 15 17 17 16 15 15 14 14 15 14 14 14 14 14 13 13 13 13 13 12 12 12 12 13 13 12 11 11 11 11 10 10 10 10
14 13 14 15 17 17 18 18 18 17 16 16 16 17 17 16 16 17 17 16 16 15 15 15 15 14 14 14 14 14 14 13 13 13 13 13 13 12 13 13 12 12 11 11 11 11 10 11 10
12 13 13 15 16 18 18 19 18 17 16 16 17 17 17 17 17 18 18 18 17 16 16 15 15 15 14 14 14 13 14 14 13 13 13 13 13 13 12 13 13 12 12 12 11 11 11 11 11
13 13 13 15 15 15 17 19 17 16 16 16 17 17 17 17 17 17 17 17 17 17 17 17 16 15 15 15 14 14 14 13 13 13 13 13 13 13 13 13 13 12 12 12 12 11 11 11 11